GFSMW_con_mucape_021.txt.gz
CAPE
2543 2509 2512 2545 3171 3024 2977 2491 2224 1827 1482 1237 1733 1914 1271 2238 2017 2223 1688 1774 1912 1784 2364 2600 2464 2518 2281 2146 2581 2020 2213 1033 963 1571 931 622 848 1618 1554 1399 1249 1812 1700
2743 2774 2983 3113 3251 2804 2396 2171 1862 905 784 1657 1606 2080 1745 1909 2165 2540 1920 2026 1680 1552 1817 2302 2099 2331 2233 2354 2381 2293 2191 1949 2213 1049 612 388 135 658 1333 1404 2353 1731 2391
2967 2996 3087 2704 2597 2518 2034 2055 1169 855 339 911 1720 2815 2304 2314 2576 1947 981 915 988 922 1262 1298 1966 1918 2487 2407 1777 1970 1571 1740 2103 1681 652 235 86 107 1916 2087 1462 1919 2804
2921 3073 2565 2493 2337 2228 2162 1771 1797 1082 571 478 474 1777 2340 1759 1137 746 813 1063 888 661 872 1115 874 1736 2260 1875 1929 2178 1583 1807 1722 1937 1109 1625 994 660 573 2104 2200 2572 2441
2518 2201 2136 2340 2362 1387 1411 1595 1455 1048 1263 1455 2043 2252 2448 610 582 631 819 1636 1751 917 969 738 771 1061 1872 1926 1619 1884 2129 1974 1883 1595 1998 1536 465 786 750 1043 867 1477 1287
1977 1889 2180 2195 1628 1606 1230 1304 1551 1460 1487 1495 1862 1995 1038 842 766 909 716 416 370 800 972 900 1012 1526 1271 1303 1996 1859 1616 1885 844 1395 1718 1761 1079 545 814 1435 997 322 725
1837 2124 2140 1883 1804 1562 933 1164 1429 1518 1911 2024 1715 1212 1172 1008 857 1062 566 925 528 780 1450 1049 1071 1025 1127 1161 1569 1625 1375 1556 894 1161 1316 1855 770 2070 1537 1976 437 322 903
1729 1887 1874 1781 1715 1360 1377 1650 2078 2546 2532 1914 1470 1286 1079 698 608 877 715 768 801 1184 1090 1149 890 1144 699 935 1116 961 1072 1390 1109 1022 1339 1523 1233 586 896 1703 2030 1108 342
1533 1800 1768 1617 1657 1440 1488 1590 1980 2160 1996 1781 1441 1263 1056 1030 1004 896 946 621 1106 976 970 1126 1108 970 883 991 1170 1570 1236 1706 1724 1442 1190 1727 1501 683 572 830 1429 1597 293
1649 1807 1884 1789 1516 1598 1598 1860 2091 2285 2028 1518 1207 1007 890 896 973 886 1194 855 917 910 959 577 782 1037 1069 1038 1271 1674 1474 1294 1386 1432 1276 1543 2168 1890 2149 1242 740 1415 847
1986 1896 1935 1809 1566 1941 1922 2049 2264 2057 1455 1459 978 892 882 823 1411 849 874 689 707 813 699 533 370 468 868 1240 1382 983 872 975 870 751 715 741 1044 1581 2369 2505 1991 1362 1570
2150 2155 2157 1918 1685 1787 1862 1952 1762 1394 1311 1446 1225 1040 959 857 927 800 715 768 482 818 624 625 420 452 338 388 434 211 371 421 353 729 433 440 695 893 1143 1369 1207 1102 1034
2406 2374 2314 1957 1838 1871 1454 1440 1071 1192 1179 1521 1380 1062 1019 1172 1032 822 503 643 293 232 392 242 382 306 221 69 42 20 0 0 9 50 250 171 115 153 107 99 105 140 323
2612 2567 2571 2338 2188 1854 1834 1590 1164 1043 1328 1319 1202 1215 1161 1212 1102 664 421 425 255 285 208 195 114 161 50 28 18 18 0 0 0 0 0 0 0 4 4 12 9 33 23
2481 2855 2698 2255 1795 1724 1969 1855 1607 1422 1432 1414 1344 1370 1309 1119 1162 680 388 226 184 66 24 51 26 12 11 4 19 8 4 0 0 0 10 10 11 4 1 0 1 9 9
2449 2822 2153 1567 1702 2301 2175 1866 1918 1794 1441 1364 1335 1723 1587 1332 1300 719 259 275 52 13 8 9 12 8 0 0 0 7 15 7 0 0 0 0 0 0 0 1 1 3 2
2426 2703 1739 1813 2243 2135 2210 2139 2067 2278 2003 2413 1794 1681 1809 1840 1414 882 349 61 9 7 9 11 13 9 0 0 0 1 7 7 0 0 0 0 0 2 0 1 1 1 3
2622 2156 1682 2211 2516 2473 2223 2066 1701 1795 1762 1651 1482 1589 1808 1964 1693 1082 643 56 4 3 3 9 6 5 0 0 0 0 14 3 4 2 0 2 0 0 0 0 0 0 0
2644 2375 2154 2182 1804 1634 1518 1684 1600 1473 1288 849 277 208 569 1146 1310 1105 537 200 42 11 25 11 13 10 0 0 0 0 0 0 0 0 0 0 0 0 0 0 0 0 0
2730 2207 1786 1068 705 551 672 956 729 398 176 43 0 0 0 129 601 617 536 100 87 15 3 3 2 1 1 0 0 0 0 0 0 0 0 0 0 0 0 0 0 0 0
1823 1644 1191 854 600 760 761 636 464 180 65 29 0 0 1 212 110 97 23 49 50 19 7 9 7 13 11 7 2 0 0 0 0 0 0 1 2 0 0 0 0 0 2
1396 1270 1129 735 792 729 610 477 206 127 45 0 0 0 0 1 4 3 11 19 52 49 16 17 9 10 16 14 3 0 0 0 0 0 0 6 0 0 0 0 0 0 0
1205 1067 797 588 622 614 481 294 115 13 0 0 0 0 0 0 1 11 11 16 7 5 21 3 2 20 16 3 0 0 0 1 1 3 4 0 0 0 0 0 0 0 0
887 445 384 307 321 381 119 0 0 0 0 0 0 0 0 0 2 5 24 2 14 19 9 16 13 0 3 17 2 0 0 4 5 7 7 9 12 0 0 0 0 0 0
145 291 422 344 71 12 0 0 0 0 0 0 0 0 0 0 0 0 0 2 1 1 5 10 0 1 0 3 0 0 3 6 2 12 12 11 2 0 0 0 0 0 0
377 240 72 12 3 0 0 0 0 0 0 0 0 0 0 0 0 0 0 6 11 4 0 3 3 5 0 3 3 13 3 5 1 1 1 0 0 0 0 0 0 0 0

GFSMW_con_mucape_024.txt.gz
CAPE
2485 2283 2164 2408 3739 3680 3605 3636 2969 3294 2169 358 195 759 1883 2500 1976 360 473 23 2 1669 1838 1954 1672 1735 1507 1612 1479 928 398 209 392 764 1377 1694 1763 1188 1083 1867 1413 1442 1386
2914 2886 3353 4010 3852 3580 3296 3408 3037 1979 2001 293 567 860 1705 2487 2555 2167 1284 726 1012 1837 2247 1772 1309 1142 957 841 1172 981 632 650 1064 796 1134 725 464 561 1346 1441 1516 1377 1493
2947 3356 3199 3875 3191 3050 3069 3058 2421 1866 1438 1376 1110 1064 1796 1611 1942 1853 2072 1588 1350 1500 1416 1472 1638 1261 1265 1007 872 862 694 577 510 1171 763 700 197 602 1250 1201 1460 1388 1809
2904 3364 3412 2895 2543 2739 2969 3289 1993 1860 1423 1032 775 1705 1488 1364 1640 2149 1981 1853 1879 1579 1245 1444 1489 1330 1284 1197 1016 1018 1013 936 866 982 758 706 918 589 247 712 1190 1451 1973
2899 2957 2914 2647 2654 2714 2435 3042 2472 2126 2007 2089 2100 2637 1975 2095 2310 1949 1921 2352 1951 1374 857 1106 1267 1294 1322 1233 1050 914 797 889 667 885 485 539 812 1117 718 642 981 1724 1481
2726 2691 2914 2860 2592 1986 1889 2024 2299 2447 2619 2486 2646 2615 2031 2173 1714 1807 1756 1058 1156 1568 1260 1387 1249 1304 1150 1191 962 1099 1183 537 577 877 683 481 419 466 563 625 802 543 703
2248 2712 2631 2786 2327 2101 1705 2005 2242 2419 2171 2523 2359 1796 1809 1710 2233 1786 1234 1664 1020 1046 1266 1393 1362 1150 1143 1210 1290 1088 961 701 657 828 834 279 459 470 470 784 717 387 652
2246 2304 2249 2311 2186 1785 1721 1830 2240 2398 2920 2745 2225 2235 1844 2164 1513 1794 1385 1427 1250 1313 1318 1283 1275 1131 1179 1137 1367 1665 1761 1659 1320 1172 1149 915 835 867 612 448 351 526 438
2082 2237 2127 2007 2170 1770 2008 2235 2915 3121 3019 2321 2487 2338 1908 1844 1750 1761 1689 1121 1438 928 1002 813 1048 1071 1326 1466 1544 1129 1006 1491 1228 1481 1423 1305 787 832 641 765 795 824 362
1811 2076 1868 1977 1947 1864 2075 2252 2681 2923 2502 2327 2221 1932 2016 1839 1062 1135 1342 1078 1079 1074 858 484 642 905 1033 1363 1501 1032 673 654 611 820 1140 553 455 855 890 619 575 964 537
1648 2251 1841 1776 1578 1508 1604 2099 2270 2703 2391 2327 2096 1854 1797 1647 1703 1107 1143 843 988 811 533 413 370 231 325 827 941 579 865 781 782 700 697 725 703 726 640 1222 848 492 351
1886 2015 1931 1809 1659 1803 1745 1855 2328 2118 1913 2456 2045 2109 2029 1614 1295 1143 1122 860 749 594 325 212 512 530 197 34 44 53 57 58 43 74 159 299 381 416 462 750 696 641 504
2489 2321 2349 2201 1911 2160 1885 446 1920 1823 1834 2202 2077 2037 2085 1720 1611 969 980 728 516 400 212 146 335 47 11 26 15 15 0 0 1 0 0 9 6 20 317 17 108 143 160
2819 2891 2833 2626 2834 2407 2220 1811 1550 1457 1754 2067 1961 2033 2038 1974 1404 1237 945 684 629 367 284 112 71 61 27 5 7 4 0 0 0 0 0 0 0 0 2 9 5 5 6
2952 3124 2989 3180 2522 2542 2446 2206 1715 1913 2162 2298 1893 2526 1593 1592 1392 1007 875 626 399 15 91 105 39 14 1 2 5 5 3 0 0 0 0 0 0 0 1 4 1 5 0
3002 3164 3103 2425 2287 2075 2569 2730 2641 2471 2568 2331 1645 2535 1917 1844 1336 1114 707 528 77 5 173 34 6 0 0 0 1 4 6 3 4 2 0 0 0 0 0 0 0 0 28
3125 3257 2447 2111 2460 2515 3319 2894 3373 3203 2589 2138 2195 1918 1712 1787 1227 1053 495 359 16 19 57 27 10 0 0 0 1 0 7 12 12 16 16 0 0 0 0 0 0 0 0
3260 2963 2106 2272 2785 2626 2959 3021 2583 2520 2109 1776 1467 1511 1470 1726 1513 1251 644 406 57 59 1 19 12 0 0 0 0 0 14 0 0 0 3 0 0 0 0 0 0 0 0
3552 2438 2450 2936 2450 2647 2434 2573 2156 2425 1436 1076 759 301 357 789 1682 985 805 681 148 34 3 19 21 0 0 0 0 0 0 0 0 0 0 0 0 0 0 0 0 0 0
2953 2786 2633 1956 1960 1803 1763 1943 1341 1052 944 555 261 14 0 47 858 920 504 299 50 17 25 0 0 0 0 5 0 3 1 0 0 0 0 0 0 0 0 15 0 0 0
2165 2001 1870 1741 1395 928 1058 993 790 454 385 142 70 19 1 53 298 314 134 173 25 67 17 0 0 1 4 0 0 0 1 0 0 0 0 0 0 0 0 0 0 0 0
1611 1606 1321 1185 781 651 775 742 626 417 184 108 17 0 0 1 87 103 54 116 17 1 16 23 19 15 7 2 1 11 6 0 0 0 0 5 1 0 0 0 0 0 0
1259 1052 1136 1058 735 719 564 508 451 284 109 0 0 0 0 0 4 6 11 13 14 17 9 4 17 4 4 5 0 5 0 1 3 1 6 2 3 0 6 0 0 0 0
854 962 1006 729 524 469 425 394 197 0 0 0 0 0 0 0 0 1 0 7 8 4 14 16 16 16 7 15 3 12 1 1 2 12 3 11 21 20 15 2 0 0 0
746 925 604 249 269 393 140 26 0 0 0 0 0 0 0 0 0 0 0 0 0 1 1 3 10 12 9 16 19 8 0 1 10 14 3 12 14 11 0 0 0 3 0
285 182 317 280 139 12 1 0 0 0 0 0 0 0 0 0 0 0 0 0 0 5 17 8 8 15 14 12 2 0 7 10 2 4 0 0 7 5 8 11 9 0 0

GFSMW_con_mucape_030.txt.gz
CAPE
1630 1653 1716 2140 2369 2197 2094 2030 1483 1074 738 178 42 46 121 408 621 482 307 175 321 197 75 161 646 566 500 303 283 283 77 50 75 68 57 118 138 179 236 212 447 788 732
1807 2074 2622 2717 2369 2245 2025 1838 1450 988 495 120 7 41 104 319 790 712 832 702 570 546 572 667 491 243 295 189 69 63 131 122 133 54 49 50 49 50 242 285 427 682 787
2611 2770 2850 2672 2489 2379 2131 2006 1734 1287 291 10 237 325 274 391 393 453 536 527 630 638 601 328 160 81 152 156 121 101 57 79 71 108 14 9 4 37 108 320 502 670 653
2880 2793 2825 2745 2591 2587 2434 2299 1772 999 234 281 216 620 560 665 628 431 376 346 334 384 410 208 296 215 196 231 214 212 207 123 86 11 79 29 26 38 53 141 466 597 584
3098 3102 2963 2980 2765 2542 2357 1905 1732 1019 971 567 244 149 734 755 418 319 202 316 280 179 222 268 220 159 202 237 164 247 277 144 118 69 80 111 163 108 68 53 99 345 384
3086 3125 3079 2705 2432 2402 2105 1981 1360 908 642 331 593 1355 996 617 595 246 305 286 170 54 59 160 203 246 366 345 314 263 333 182 115 109 94 88 56 63 90 68 73 61 178
2882 2907 2631 2526 2393 2397 2324 2127 1133 1057 947 1539 1801 1301 934 923 612 318 214 112 94 0 0 108 196 409 502 434 229 250 153 107 125 153 154 153 107 67 72 51 41 40 117
2789 2721 2724 2511 2189 2366 2240 1812 1055 1388 1605 1730 1229 1079 869 641 260 209 39 74 2 0 0 36 240 293 377 443 387 232 200 113 110 102 131 163 150 104 65 72 45 55 126
2235 2817 2492 2132 1951 1876 1953 1672 1541 1695 1690 1360 1137 900 590 419 224 103 0 0 8 6 15 18 42 84 189 192 174 245 284 149 195 199 118 100 17 58 196 157 113 81 59
2255 2357 2284 2109 1934 1535 1609 1498 1275 1397 1791 1200 1030 876 399 398 271 67 34 0 0 0 121 10 1 0 33 47 35 29 38 54 96 171 144 181 239 258 260 178 184 110 82
2133 2224 2098 1923 1693 1363 1439 1537 1391 1455 1543 1107 1013 815 515 390 227 66 3 0 0 1 26 11 0 0 0 0 0 0 0 0 0 6 10 10 34 39 72 95 84 96 101
1823 2046 1928 1716 1666 1329 1444 1177 871 813 969 1240 1044 890 625 435 199 43 0 0 0 0 1 0 0 0 0 0 1 0 0 0 0 0 0 0 0 2 7 15 22 38 51
1396 1590 1731 1630 1555 1502 1699 420 95 453 861 1368 921 774 689 578 207 34 0 0 0 0 0 0 0 0 0 0 0 0 0 0 0 0 0 0 0 0 0 0 0 0 21
424 1010 1467 1505 1459 1421 741 186 171 788 1370 1000 1031 794 727 672 394 121 51 0 0 0 0 0 0 0 0 0 0 0 0 0 0 0 0 0 3 0 0 0 0 0 0
609 866 1235 1447 1434 1381 1179 329 950 1306 1401 1168 1021 1083 705 669 314 288 155 0 0 0 0 0 0 0 0 0 0 0 0 0 0 0 0 0 0 0 0 0 0 0 0
1468 1113 1260 1323 1326 1410 1341 1012 1356 1365 1388 1238 1065 1164 935 766 553 316 213 71 0 0 0 0 0 0 0 0 0 0 0 0 0 0 0 0 0 0 0 0 0 0 0
1769 1438 1577 1564 1428 1381 1204 1225 1373 1400 1359 1491 1421 1246 992 829 619 484 349 271 43 45 1 0 0 0 0 0 0 0 0 0 0 0 0 0 0 0 0 0 0 0 0
1536 1491 1461 1298 1222 1333 1856 1441 1443 1451 1379 1296 1136 1138 939 888 695 540 449 215 114 71 9 2 2 0 0 0 0 0 0 0 0 0 0 0 0 0 0 0 0 0 0
714 1702 1495 1272 1437 1908 1770 1604 1378 1528 1034 1018 1105 970 947 1019 890 970 670 422 283 30 30 5 8 0 0 0 0 0 0 0 0 0 0 0 0 0 0 0 0 0 0
1179 1912 1845 1655 1874 1647 1205 680 499 666 871 823 716 557 253 118 783 678 551 400 139 24 12 17 16 1 0 0 0 0 1 0 0 0 0 0 0 0 0 0 0 0 0
1864 1993 1783 1753 1610 1462 886 335 309 634 579 672 484 217 60 164 470 582 365 258 13 13 6 21 10 6 3 14 3 6 23 2 0 0 0 0 0 0 0 0 0 0 0
1898 1746 1645 1456 1219 1311 823 413 419 649 652 507 282 131 17 19 198 283 195 96 28 30 35 17 18 28 26 19 8 17 21 13 2 0 3 0 1 7 13 12 4 2 4
1685 1620 1633 1328 1081 938 812 807 757 658 584 361 189 6 0 2 21 99 66 37 30 41 43 19 20 17 33 26 13 24 5 14 9 1 0 0 0 0 2 15 6 0 0
1169 1101 906 772 763 738 573 544 599 460 328 105 0 0 0 0 1 2 20 38 30 25 7 24 21 17 28 26 50 48 26 17 11 9 22 2 3 0 0 0 0 0 0
718 683 397 672 645 551 522 481 389 291 68 0 0 0 0 0 0 0 3 4 6 9 14 9 9 7 9 14 18 21 31 21 20 16 2 0 0 0 0 0 0 0 0
370 280 621 588 527 312 244 241 110 5 0 0 0 0 0 0 0 0 0 0 0 0 0 1 4 2 2 10 13 23 17 5 2 3 1 0 0 0 0 0 0 0 0

GFSMW_con_mucape_033.txt.gz
CAPE
1616 1741 1719 1865 1890 1924 1972 2147 1715 1275 1016 532 128 103 173 312 530 497 426 217 146 161 105 145 148 459 433 316 262 168 187 98 39 13 26 0 6 104 171 211 231 380 576
1724 1753 2157 2138 1995 2011 2050 1974 1533 1133 686 277 92 34 90 333 496 534 558 513 491 410 405 502 443 105 79 103 60 33 18 57 57 22 53 27 13 39 84 112 163 235 362
1797 2285 2331 2144 2032 2031 1998 1718 1451 942 520 60 330 201 196 268 340 477 514 336 495 479 410 371 235 107 83 95 76 54 26 12 44 66 40 30 17 21 27 175 282 354 409
1967 2307 2241 2129 2016 2048 1900 1828 1444 757 193 274 449 393 490 554 628 365 364 271 232 166 134 132 137 71 43 97 113 92 83 71 43 35 61 36 23 1 18 78 76 248 421
2184 2341 2233 2109 2211 2055 2213 1966 1356 776 290 405 264 290 755 619 438 244 316 311 120 56 74 148 98 80 156 180 182 113 150 207 123 61 17 27 56 76 42 35 21 46 203
2498 1969 2489 2348 2398 2171 2025 1636 1420 792 841 469 606 1149 839 700 401 295 226 131 41 0 0 69 102 231 298 369 234 181 275 261 75 71 72 38 34 67 106 88 51 10 62
1395 64 86 2506 2306 2012 1789 1859 843 757 567 883 1785 1343 938 744 561 239 108 29 0 0 0 99 180 233 374 339 246 144 75 51 43 57 75 73 75 69 52 27 24 28 36
24 217 702 1850 2064 1844 1978 1707 864 875 1403 1571 1225 964 845 579 229 123 58 0 0 0 5 40 63 165 315 364 320 219 113 40 45 52 71 87 100 118 59 20 20 10 44
138 980 1365 1998 2017 2021 1973 1346 1058 1465 1483 1520 1171 858 560 315 192 80 1 0 0 170 11 5 9 87 102 110 153 145 46 48 81 70 54 61 34 105 109 67 26 8 20
972 1051 1612 1904 1873 1928 1695 1392 1398 1405 1727 1220 948 698 304 293 181 55 0 0 0 8 0 0 0 1 9 12 10 16 13 25 34 41 48 93 121 108 152 154 73 60 17
1490 1806 1814 1774 1670 1508 1402 1177 1298 1117 1212 1160 983 569 361 263 132 35 0 0 0 0 0 0 0 0 0 0 0 0 0 0 0 0 0 4 11 47 73 98 129 68 30
1805 2127 1751 1556 1445 1227 1328 1069 859 818 992 1068 900 755 402 319 92 0 0 0 0 0 0 0 0 0 0 0 0 0 0 0 0 0 0 0 0 0 0 1 12 31 48
1897 2058 1828 1472 1361 1018 1121 1065 607 213 533 1091 955 845 610 442 145 8 0 0 0 0 0 0 0 0 0 0 0 0 0 0 0 0 0 0 0 0 0 0 0 14 23
1580 1852 1792 1432 1285 990 1044 1295 633 250 437 1062 1020 825 609 454 312 154 48 0 0 0 0 0 0 0 0 0 0 0 0 0 0 0 0 0 0 0 0 0 0 0 23
211 1093 1506 1565 1315 1106 1165 467 171 272 589 1169 958 876 674 512 349 261 186 27 0 0 0 0 0 0 0 0 0 0 0 0 0 0 0 0 0 0 0 0 0 0 3
320 615 674 760 1250 1024 1117 139 647 759 1151 1440 1080 949 827 674 449 307 257 114 22 15 0 0 0 0 0 0 0 0 0 0 0 0 0 0 0 0 0 0 0 0 0
763 825 80 712 574 488 712 279 949 1102 1321 1401 1272 1050 1002 870 601 346 241 120 30 18 10 0 0 0 0 0 0 0 0 0 0 0 0 0 0 0 0 0 0 0 0
1014 1265 441 850 875 334 431 348 964 1183 1370 1558 1455 1253 928 871 712 343 356 241 65 50 3 1 0 0 0 0 0 0 0 0 0 0 0 0 0 0 0 0 0 0 0
720 1454 1001 1145 1125 868 751 741 853 1125 1273 1206 1065 923 902 892 579 473 441 431 204 136 10 10 3 2 0 0 0 0 0 0 0 0 0 0 0 0 0 0 0 0 0
1514 675 1314 1324 1141 1227 1057 827 761 567 264 507 478 574 550 816 782 799 546 380 188 113 12 9 14 9 1 0 0 0 0 3 8 0 0 0 0 0 0 0 0 0 0
1482 1353 1462 1173 1233 883 819 391 137 3 14 130 282 343 223 77 327 514 595 298 185 167 12 14 11 17 3 3 16 3 6 3 19 15 1 0 0 0 0 0 1 0 0
1714 1618 1404 1212 1154 831 704 361 231 18 48 183 467 365 128 121 299 442 492 315 165 33 13 27 11 27 18 6 24 7 30 27 24 18 8 2 0 0 0 0 11 16 5
1486 1400 1499 1360 1038 887 862 624 433 232 319 461 386 171 24 13 138 306 230 102 37 35 37 50 16 7 19 11 16 5 6 34 18 18 14 18 11 2 0 0 0 0 0
1317 1127 1054 840 673 767 606 552 543 485 370 282 189 39 0 1 43 135 98 40 34 33 39 41 19 11 28 14 46 26 22 33 23 8 6 18 9 0 0 0 0 0 0
613 482 542 294 268 433 410 329 367 310 282 148 23 0 0 0 4 4 12 19 23 23 13 13 3 13 3 17 16 21 17 22 11 24 4 12 0 0 0 0 0 0 0
732 472 211 439 479 490 396 268 215 132 62 19 0 0 0 0 0 0 0 1 2 2 0 0 0 4 5 15 12 14 18 16 11 5 0 1 0 0 0 0 0 0 0